Location: Augirein
(42.9320°N, 0.9181°E)
Time: 01:23:12
(UTC+00:00)

Cosmos 2369 Rocket - Pass Details

Date: 20 June 2021
Orbit: 828 x 853 km, 71.0° (Epoch: 04 August)

Event Time Altitude Azimuth Distance (km) Brightness Sun altitude
Rises 02:12:46 0° 319° (NW) 3,430 5.6 -16.7°
Reaches altitude 10° 02:16:03 10° 301° (WNW) 2,488 4.6 -16.4°
Maximum altitude 02:19:36 17° 262° (W) 2,015 3.8 -16.1°
Enters shadow 02:20:20 17° 252° (WSW) 2,035 3.7 -16.0°
